When you browse on this site, cookies collect data to enhance your experience and personalize the content and advertising you see.
Visit our Privacy Policy to learn more. By continuing to use the site, you agree to this use of cookies and data.
  • In United Kingdom
  • List of Countries
  • For 7 days
  • Water Temperature
  • Satellite Maps
  • Weather Map
  • Weather Widgets
  • user-avatar
    Login

    Hourly Weather Takhtakupyr

    Today, 22 February, Friday

    Time Temperature Precipitation Wind Pressure Humidity
    00:00 -2°C° 0 mm 5 mps 765 mmHg 49%
    01:00 -2°C° 0 mm 5 mps 764 mmHg 50%
    02:00 -2°C° 0 mm 5 mps 764 mmHg 50%
    03:00 -2°C° 0 mm 5 mps 763 mmHg 50%
    04:00 -2°C° 0 mm 5 mps 763 mmHg 51%
    05:00 -2°C° 0 mm 5 mps 763 mmHg 51%
    06:00 -2°C° 0 mm 5 mps 763 mmHg 51%
    07:00 -2°C° 0 mm 5 mps 762 mmHg 51%
    08:00 -2°C° 0 mm 6 mps 762 mmHg 47%
    09:00 +1°C° 0 mm 6 mps 762 mmHg 42%
    10:00 +2°C° 0 mm 7 mps 762 mmHg 37%
    11:00 +3°C° 0 mm 6 mps 762 mmHg 36%
    12:00 +4°C° 0 mm 6 mps 761 mmHg 34%
    13:00 +7°C° 0 mm 6 mps 761 mmHg 33%
    14:00 +7°C° 0 mm 6 mps 761 mmHg 33%
    15:00 +7°C° 0 mm 5 mps 760 mmHg 33%
    16:00 +7°C° 0 mm 5 mps 760 mmHg 34%
    17:00 +6°C° 0 mm 5 mps 760 mmHg 37%
    18:00 +5°C° 0 mm 4 mps 760 mmHg 41%
    19:00 +4°C° 0 mm 4 mps 760 mmHg 45%
    20:00 +4°C° 0 mm 4 mps 760 mmHg 45%
    21:00 +4°C° 0 mm 4 mps 760 mmHg 46%
    22:00 +3°C° 0 mm 3 mps 761 mmHg 47%
    23:00 +3°C° 0 mm 3 mps 761 mmHg 48%

    Tomorrow, 23 February, Saturday

    Time Temperature Precipitation Wind Pressure Humidity
    00:00 +2°C° 0 mm 3 mps 760 mmHg 48%
    01:00 +2°C° 0 mm 3 mps 760 mmHg 49%
    02:00 +3°C° 0 mm 2 mps 760 mmHg 50%
    03:00 +3°C° 0 mm 2 mps 760 mmHg 51%
    04:00 +2°C° 0 mm 2 mps 760 mmHg 52%
    05:00 +2°C° 0 mm 2 mps 760 mmHg 53%
    06:00 +2°C° 0 mm 2 mps 761 mmHg 54%
    07:00 +2°C° 0 mm 2 mps 761 mmHg 55%
    08:00 +3°C° 0 mm 2 mps 761 mmHg 50%
    09:00 +5°C° 0 mm 2 mps 761 mmHg 45%
    10:00 +7°C° 0 mm 2 mps 761 mmHg 40%
    11:00 +8°C° 0 mm 2 mps 761 mmHg 37%
    12:00 +9°C° 0 mm 2 mps 761 mmHg 35%
    13:00 +10°C° 0 mm 2 mps 761 mmHg 32%
    14:00 +10°C° 0 mm 2 mps 761 mmHg 31%
    15:00 +12°C° 0 mm 2 mps 761 mmHg 31%
    16:00 +11°C° 0 mm 3 mps 761 mmHg 30%
    17:00 +10°C° 0 mm 3 mps 761 mmHg 35%
    18:00 +8°C° 0 mm 3 mps 761 mmHg 39%
    19:00 +6°C° 0 mm 4 mps 762 mmHg 44%
    20:00 +5°C° 0 mm 4 mps 762 mmHg 48%
    21:00 +4°C° 0 mm 4 mps 762 mmHg 51%
    22:00 +3°C° 0 mm 4 mps 762 mmHg 55%
    23:00 +3°C° 0 mm 4 mps 762 mmHg 57%

    Day after tomorrow, 24 February, Sunday

    Time Temperature Precipitation Wind Pressure Humidity
    00:00 +2°C° 0 mm 3 mps 762 mmHg 59%
    01:00 +2°C° 0 mm 3 mps 762 mmHg 61%
    02:00 +1°C° 0 mm 3 mps 762 mmHg 62%
    03:00 +1°C° 0 mm 3 mps 762 mmHg 63%
    04:00 0°C° 0 mm 3 mps 762 mmHg 65%
    05:00 0°C° 0 mm 3 mps 762 mmHg 67%
    06:00 -1°C° 0 mm 3 mps 762 mmHg 69%
    07:00 -1°C° 0 mm 3 mps 762 mmHg 71%
    08:00 -1°C° 0 mm 4 mps 763 mmHg 65%
    09:00 +1°C° 0 mm 4 mps 763 mmHg 59%
    10:00 +3°C° 0 mm 4 mps 763 mmHg 54%
    11:00 +4°C° 0 mm 4 mps 763 mmHg 49%
    12:00 +5°C° 0 mm 4 mps 763 mmHg 44%
    13:00 +6°C° 0 mm 4 mps 763 mmHg 40%
    14:00 +6°C° 0 mm 4 mps 763 mmHg 39%
    15:00 +6°C° 0 mm 4 mps 762 mmHg 38%
    16:00 +7°C° 0 mm 4 mps 762 mmHg 37%
    17:00 +6°C° 0 mm 4 mps 762 mmHg 40%
    18:00 +5°C° 0 mm 4 mps 763 mmHg 44%
    19:00 +4°C° 0 mm 4 mps 763 mmHg 48%
    20:00 +3°C° 0 mm 4 mps 763 mmHg 51%
    21:00 +1°C° 0 mm 4 mps 763 mmHg 54%
    22:00 +1°C° 0 mm 4 mps 763 mmHg 57%
    23:00 0°C° 0 mm 4 mps 763 mmHg 59%

    25 February, Monday

    Time Temperature Precipitation Wind Pressure Humidity
    00:00 +1°C° 0 mm 3 mps 763 mmHg 61%
    01:00 0°C° 0 mm 3 mps 762 mmHg 64%
    02:00 0°C° 0 mm 3 mps 762 mmHg 65%
    03:00 0°C° 0 mm 3 mps 762 mmHg 66%
    04:00 -1°C° 0 mm 3 mps 762 mmHg 67%
    05:00 -1°C° 0 mm 3 mps 762 mmHg 68%
    06:00 -1°C° 0 mm 3 mps 762 mmHg 69%
    07:00 -1°C° 0 mm 2 mps 761 mmHg 70%
    08:00 +1°C° 0 mm 2 mps 761 mmHg 64%
    09:00 +3°C° 0 mm 2 mps 761 mmHg 58%
    10:00 +3°C° 0 mm 3 mps 761 mmHg 53%
    11:00 +5°C° 0 mm 2 mps 761 mmHg 48%
    12:00 +7°C° 0 mm 2 mps 760 mmHg 44%
    13:00 +8°C° 0 mm 2 mps 760 mmHg 39%
    14:00 +9°C° 0 mm 2 mps 759 mmHg 38%
    15:00 +9°C° 0 mm 2 mps 759 mmHg 36%
    16:00 +10°C° 0 mm 2 mps 758 mmHg 35%
    17:00 +9°C° 0 mm 2 mps 758 mmHg 38%
    18:00 +8°C° 0 mm 2 mps 758 mmHg 41%
    19:00 +8°C° 0 mm 2 mps 758 mmHg 44%
    20:00 +7°C° 0 mm 2 mps 758 mmHg 47%
    21:00 +7°C° 0 mm 3 mps 758 mmHg 50%
    22:00 +5°C° 0 mm 3 mps 758 mmHg 53%
    23:00 +5°C° 0 mm 3 mps 758 mmHg 58%

    26 February, Tuesday

    Time Temperature Precipitation Wind Pressure Humidity
    00:00 +4°C° 0 mm 3 mps 757 mmHg 62%
    01:00 +4°C° 0 mm 3 mps 757 mmHg 66%
    02:00 +4°C° 0.1 mm 3 mps 757 mmHg 70%
    03:00 +3°C° 0.1 mm 4 mps 757 mmHg 74%
    04:00 +1°C° 0.1 mm 4 mps 757 mmHg 77%
    05:00 +2°C° 0 mm 3 mps 757 mmHg 76%
    06:00 +1°C° 0 mm 3 mps 757 mmHg 76%
    07:00 +1°C° 0 mm 3 mps 757 mmHg 75%
    08:00 +1°C° 0 mm 3 mps 757 mmHg 68%
    09:00 +1°C° 0 mm 4 mps 757 mmHg 62%
    10:00 +3°C° 0 mm 4 mps 757 mmHg 55%
    11:00 +3°C° 0 mm 5 mps 757 mmHg 48%
    12:00 +5°C° 0 mm 5 mps 756 mmHg 41%
    13:00 +5°C° 0 mm 6 mps 756 mmHg 33%
    14:00 +5°C° 0 mm 6 mps 755 mmHg 33%
    15:00 +5°C° 0 mm 6 mps 755 mmHg 32%
    16:00 +5°C° 0 mm 6 mps 754 mmHg 31%
    17:00 +6°C° 0 mm 5 mps 754 mmHg 35%
    18:00 +5°C° 0 mm 4 mps 754 mmHg 38%
    19:00 +5°C° 0 mm 3 mps 754 mmHg 41%
    20:00 +4°C° 0 mm 3 mps 753 mmHg 43%
    21:00 +4°C° 0 mm 3 mps 753 mmHg 44%
    22:00 +5°C° 0 mm 2 mps 753 mmHg 45%
    23:00 +4°C° 0 mm 3 mps 752 mmHg 46%

    27 February, Wednesday

    Time Temperature Precipitation Wind Pressure Humidity
    00:00 +4°C° 0 mm 3 mps 752 mmHg 46%
    01:00 +4°C° 0 mm 4 mps 751 mmHg 46%
    02:00 +3°C° 0 mm 4 mps 750 mmHg 51%
    03:00 +3°C° 0 mm 4 mps 750 mmHg 55%
    04:00 +3°C° 0 mm 4 mps 749 mmHg 59%
    05:00 +3°C° 0 mm 4 mps 749 mmHg 62%
    06:00 +4°C° 0 mm 4 mps 748 mmHg 64%
    07:00 +4°C° 0 mm 4 mps 748 mmHg 66%
    08:00 +6°C° 0 mm 4 mps 747 mmHg 59%
    09:00 +7°C° 0 mm 5 mps 747 mmHg 51%
    10:00 +9°C° 0 mm 6 mps 746 mmHg 44%
    11:00 +10°C° 0 mm 6 mps 746 mmHg 39%
    12:00 +13°C° 0 mm 6 mps 745 mmHg 33%
    13:00 +15°C° 0 mm 6 mps 744 mmHg 28%
    14:00 +15°C° 0 mm 4 mps 744 mmHg 27%
    15:00 +16°C° 0 mm 3 mps 743 mmHg 26%
    16:00 +16°C° 0 mm 2 mps 743 mmHg 26%
    17:00 +14°C° 0 mm 3 mps 743 mmHg 31%
    18:00 +12°C° 0 mm 4 mps 743 mmHg 37%
    19:00 +10°C° 0 mm 5 mps 743 mmHg 43%
    20:00 +9°C° 0 mm 6 mps 743 mmHg 49%
    21:00 +8°C° 0 mm 6 mps 743 mmHg 55%
    22:00 +6°C° 0 mm 7 mps 742 mmHg 61%
    23:00 +5°C° 0 mm 7 mps 742 mmHg 64%
    Show more